DW2770 Cefalu IT current weather conditions

sailwx.info

Wind from 203 at 3 knots gusting 3

Air temperature 15.6° C
Dewpoint 10.7° C

Last reported at 2020-Oct-27 22:00 UTC.
Time now 2020-Oct-27 23:09 UTC

Location: N 38°02' E 014°02'.
View on Google Maps.

See reports from other nearby stations

  
Tides and Currents Weather Stations Pressure Air Temp Water Temp Dewpoint Dewpoint Depression Visibility Wind Speed Wind Dir Waves Ship Positions
date/time (UTC)wind fromknots sea level pressurealtimeterstation pressurevisibilityair tempwater tempwave heightnotes
2020-Oct-27 22:00 203 3 gusting 3 15.6
2020-Oct-27 21:56 180 2 gusting 6 16.1
2020-Oct-27 21:50 180 6 gusting 6 16.1
2020-Oct-27 21:45 180 6 gusting 6 16.7
2020-Oct-27 21:40 225 4 gusting 4 16.7
2020-Oct-27 21:35 293 0 gusting 1 16.7
2020-Oct-27 21:30 315 1 gusting 8 16.7
2020-Oct-27 21:25 225 0 gusting 2 16.7
2020-Oct-27 21:21 225 2 gusting 2 16.7
2020-Oct-27 21:15 248 3 gusting 6 16.7
2020-Oct-27 21:10 270 1 gusting 3 16.7
2020-Oct-27 21:05 293 3 gusting 3 16.7
2020-Oct-27 21:00 203 2 gusting 6 16.7
2020-Oct-27 20:56 225 6 gusting 6 16.1
2020-Oct-27 20:51 023 1 gusting 2 16.1
2020-Oct-27 20:46 225 2 gusting 2 15.6
2020-Oct-27 20:40 158 15.6
2020-Oct-27 20:36 068 4 gusting 4 15.0
2020-Oct-27 20:30 248 14.4
2020-Oct-27 20:25 158 3 gusting 3 14.4
2020-Oct-27 20:20 090 2 gusting 2 15.0
2020-Oct-27 20:15 180 2 gusting 4 15.0
2020-Oct-27 20:11 158 3 gusting 4 15.0
2020-Oct-27 20:05 180 4 gusting 4 15.0
2020-Oct-27 20:00 180 4 gusting 4 15.0
2020-Oct-27 19:55 225 3 gusting 4 15.0
2020-Oct-27 19:50 180 3 gusting 5 15.0
2020-Oct-27 19:46 248 1 gusting 7 15.0
2020-Oct-27 19:41 248 1 gusting 5 15.0
2020-Oct-27 19:35 203 5 gusting 10 15.0
2020-Oct-27 19:31 203 7 gusting 7 14.4
2020-Oct-27 19:26 248 6 gusting 7 15.0
2020-Oct-27 19:21 293 5 gusting 13 15.6
2020-Oct-27 19:15 158 6 gusting 6 17.8
2020-Oct-27 19:10 293 2 gusting 4 17.8
2020-Oct-27 19:05 270 4 gusting 12 17.8
2020-Oct-27 19:00 270 1 gusting 3 17.8
2020-Oct-27 18:55 270 3 gusting 4 17.8
2020-Oct-27 18:50 248 4 gusting 6 17.8
2020-Oct-27 18:45 158 3 gusting 4 17.8
2020-Oct-27 18:40 338 1 gusting 5 17.8
2020-Oct-27 18:35 293 1 gusting 2 17.8
2020-Oct-27 18:30 225 8 gusting 8 17.8
2020-Oct-27 18:25 248 6 gusting 6 17.8
2020-Oct-27 18:20 338 5 gusting 5 17.8
2020-Oct-27 18:16 315 5 gusting 5 17.8
2020-Oct-27 18:11 225 4 gusting 6 17.8
2020-Oct-27 18:05 248 2 gusting 6 17.8
2020-Oct-27 18:01 270 1 gusting 6 17.8
2020-Oct-27 17:55 203 6 gusting 6 17.8
2020-Oct-27 17:50 180 0 gusting 4 17.8
2020-Oct-27 17:45 293 4 gusting 4 17.8
2020-Oct-27 17:41 158 0 gusting 6 17.8
2020-Oct-27 17:35 180 1 gusting 10 17.8
2020-Oct-27 17:30 225 10 gusting 10 17.8
2020-Oct-27 17:25 315 2 gusting 13 17.8
2020-Oct-27 17:20 248 13 gusting 13 17.8
2020-Oct-27 17:15 293 8 gusting 8 17.8
2020-Oct-27 17:11 270 5 gusting 8 17.8
2020-Oct-27 17:05 225 8 gusting 8 17.2
2020-Oct-27 17:01 293 7 gusting 7 17.2
2020-Oct-27 16:55 315 7 gusting 7 16.7
2020-Oct-27 16:50 225 1 gusting 13 16.7
2020-Oct-27 16:45 203 3 gusting 6 16.7
2020-Oct-27 16:40 180 1 gusting 3 16.7
2020-Oct-27 16:35 225 3 gusting 7 16.7
2020-Oct-27 16:30 225 6 gusting 8 17.2
2020-Oct-27 16:25 248 3 gusting 5 17.2
2020-Oct-27 16:20 248 1 gusting 3 17.2
2020-Oct-27 16:15 248 6 gusting 7 17.2
2020-Oct-27 16:11 203 7 gusting 7 17.2
2020-Oct-27 16:05 045 1 gusting 4 17.2
2020-Oct-27 16:01 248 2 gusting 4 17.2
2020-Oct-27 15:55 293 3 gusting 3 17.2
2020-Oct-27 15:50 293 2 gusting 4 17.2
2020-Oct-27 15:45 293 17.2
2020-Oct-27 15:40 248 1 gusting 5 17.2
2020-Oct-27 15:36 315 5 gusting 5 17.8
2020-Oct-27 15:30 293 1 gusting 3 17.8
2020-Oct-27 15:26 17.8
2020-Oct-27 15:20 338 1 gusting 2 17.2
2020-Oct-27 15:16 293 2 gusting 4 17.2
2020-Oct-27 15:10 293 0 gusting 3 17.8
2020-Oct-27 15:05 293 1 gusting 6 17.8
2020-Oct-27 15:01 270 6 gusting 8 17.8
2020-Oct-27 14:55 270 8 gusting 8 17.8
2020-Oct-27 14:50 270 6 gusting 6 17.8
2020-Oct-27 14:45 045 17.8
2020-Oct-27 14:40 293 3 gusting 9 17.2
2020-Oct-27 14:35 225 9 gusting 9 17.2
2020-Oct-27 14:31 225 2 gusting 3 17.2
2020-Oct-27 14:25 225 2 gusting 2 17.2
2020-Oct-27 14:21 293 2 gusting 7 17.2
2020-Oct-27 14:15 225 12 gusting 12 17.2
2020-Oct-27 14:10 270 5 gusting 6 16.7
2020-Oct-27 14:05 248 3 gusting 9 16.7
2020-Oct-27 14:00 293 7 gusting 10 16.7
2020-Oct-27 13:55 248 10 gusting 10 16.7
2020-Oct-27 13:50 225 10 gusting 10 17.2
2020-Oct-27 13:45 158 9 gusting 9 17.8
2020-Oct-27 13:40 225 4 gusting 5 17.8
2020-Oct-27 13:35 225 4 gusting 4 17.8
2020-Oct-27 13:30 203 3 gusting 7 17.8
2020-Oct-27 13:25 203 6 gusting 8 17.8
2020-Oct-27 13:20 225 4 gusting 6 17.8
2020-Oct-27 13:15 180 2 gusting 7 17.8
2020-Oct-27 13:10 270 6 gusting 7 17.8
2020-Oct-27 13:06 248 6 gusting 6 17.8
2020-Oct-27 13:01 203 7 gusting 7 17.8
2020-Oct-27 12:55 225 5 gusting 6 18.3
2020-Oct-27 12:50 270 3 gusting 4 18.3
2020-Oct-27 12:45 225 2 gusting 8 18.3
2020-Oct-27 12:40 338 4 gusting 4 18.3
2020-Oct-27 12:36 225 1 gusting 6 18.3
2020-Oct-27 12:30 225 5 gusting 5 18.3
2020-Oct-27 12:26 203 2 gusting 2 18.9
2020-Oct-27 12:20 293 2 gusting 6 18.3
2020-Oct-27 12:15 203 10 gusting 10 18.9
2020-Oct-27 12:10 180 8 gusting 8 18.3
2020-Oct-27 12:05 270 3 gusting 5 18.3
2020-Oct-27 12:00 203 4 gusting 8 18.3
2020-Oct-27 11:55 225 8 gusting 8 18.3
2020-Oct-27 11:50 225 1 gusting 6 18.3
2020-Oct-27 11:46 248 6 gusting 6 18.3
2020-Oct-27 11:40 315 4 gusting 4 18.3
2020-Oct-27 11:35 270 3 gusting 8 18.3
2020-Oct-27 11:30 225 3 gusting 4 17.8
2020-Oct-27 11:25 225 4 gusting 4 17.8
2020-Oct-27 11:20 248 0 gusting 5 17.8
2020-Oct-27 11:15 248 0 gusting 4 17.8
2020-Oct-27 11:10 248 4 gusting 4 17.8
2020-Oct-27 11:05 225 2 gusting 2 17.8
2020-Oct-27 11:00 270 1 gusting 6 17.8
2020-Oct-27 10:55 203 6 gusting 6 17.8
2020-Oct-27 10:50 180 1 gusting 2 17.2
2020-Oct-27 10:45 203 1 gusting 4 17.2
2020-Oct-27 10:40 225 2 gusting 5 17.2
2020-Oct-27 10:35 203 5 gusting 5 17.2
2020-Oct-27 10:30 315 3 gusting 3 17.2
2020-Oct-27 10:25 248 17.2
2020-Oct-27 10:20 203 17.2
2020-Oct-27 10:15 225 3 gusting 4 17.2
2020-Oct-27 10:10 248 2 gusting 2 16.7
2020-Oct-27 10:05 180 1 gusting 1 16.7
2020-Oct-27 10:00 203 1 gusting 1 16.7
2020-Oct-27 09:55 203 1 gusting 1 16.7
2020-Oct-27 09:51 180 1 gusting 2 16.7
2020-Oct-27 09:45 180 2 gusting 2 16.7
2020-Oct-27 09:40 180 0 gusting 4 16.7
2020-Oct-27 09:35 203 4 gusting 4 16.7
2020-Oct-27 09:30 180 6 gusting 6 16.7
2020-Oct-27 09:26 203 5 gusting 5 16.7
2020-Oct-27 09:20 225 3 gusting 5 16.7
2020-Oct-27 09:15 203 3 gusting 8 16.7
2020-Oct-27 09:10 203 8 gusting 8 16.7
2020-Oct-27 09:05 203 6 gusting 6 17.2
2020-Oct-27 09:00 203 7 gusting 7 16.7
2020-Oct-27 08:55 203 5 gusting 7 16.7
2020-Oct-27 08:50 225 4 gusting 7 16.7
2020-Oct-27 08:46 225 7 gusting 7 16.7
2020-Oct-27 08:40 225 7 gusting 11 16.7
2020-Oct-27 08:35 203 11 gusting 11 16.7
2020-Oct-27 08:30 203 7 gusting 7 17.2
2020-Oct-27 08:25 158 4 gusting 6 17.2
2020-Oct-27 08:21 225 6 gusting 6 16.7
2020-Oct-27 08:16 180 5 gusting 9 16.7
2020-Oct-27 08:11 180 9 gusting 9 16.7
2020-Oct-27 08:05 225 5 gusting 6 16.7
2020-Oct-27 08:00 203 6 gusting 7 16.7
2020-Oct-27 07:55 225 7 gusting 12 16.7
2020-Oct-27 07:50 180 6 gusting 10 16.7
2020-Oct-27 07:46 203 8 gusting 9 16.1
2020-Oct-27 07:41 203 6 gusting 7 16.1
2020-Oct-27 07:35 158 6 gusting 7 16.1
2020-Oct-27 07:30 203 7 gusting 10 15.6
2020-Oct-27 07:25 225 10 gusting 10 15.6
2020-Oct-27 07:20 203 5 gusting 5 15.6
2020-Oct-27 07:16 203 3 gusting 3 16.1
2020-Oct-27 07:10 293 2 gusting 6 16.1
2020-Oct-27 07:05 203 6 gusting 6 16.1
2020-Oct-27 07:00 203 2 gusting 7 16.1
2020-Oct-27 06:55 203 6 gusting 8 16.1
2020-Oct-27 06:50 203 6 gusting 13 16.1
2020-Oct-27 06:46 225 7 gusting 7 16.1
2020-Oct-27 06:40 203 6 gusting 8 16.1
2020-Oct-27 06:35 203 8 gusting 10 16.7
2020-Oct-27 06:30 180 10 gusting 10 16.7
2020-Oct-27 06:26 180 10 gusting 11 16.7
2020-Oct-27 06:21 203 6 gusting 10 16.7
2020-Oct-27 06:16 203 10 gusting 10 16.7
2020-Oct-27 06:11 225 6 gusting 11 16.7
2020-Oct-27 06:06 203 11 gusting 13 16.1
2020-Oct-27 06:00 180 7 gusting 7 15.6
2020-Oct-27 05:55 180 6 gusting 7 15.6
2020-Oct-27 05:50 158 7 gusting 8 15.6
2020-Oct-27 05:46 180 8 gusting 11 15.6
2020-Oct-27 05:40 158 11 gusting 13 15.6
2020-Oct-27 05:35 203 8 gusting 8 15.6
2020-Oct-27 05:30 203 8 gusting 12 15.6
2020-Oct-27 05:25 225 8 gusting 8 15.6
2020-Oct-27 05:21 180 8 gusting 8 15.6
2020-Oct-27 05:15 225 6 gusting 10 15.6
2020-Oct-27 05:10 203 10 gusting 13 15.6
2020-Oct-27 05:06 203 6 gusting 13 15.6
2020-Oct-27 05:01 203 6 gusting 8 15.6
2020-Oct-27 04:55 225 8 gusting 8 15.6
2020-Oct-27 04:50 203 8 gusting 10 15.6
2020-Oct-27 04:45 180 11 gusting 15 15.6
2020-Oct-27 04:40 203 15 gusting 15 15.6
2020-Oct-27 04:35 225 14 gusting 14 16.1
2020-Oct-27 04:30 180 4 gusting 8 16.1
2020-Oct-27 04:25 203 8 gusting 10 16.1
2020-Oct-27 04:20 248 10 gusting 10 16.1
2020-Oct-27 04:15 248 10 gusting 10 16.1
2020-Oct-27 04:10 248 6 gusting 10 16.7
2020-Oct-27 04:06 203 10 gusting 16 16.7
2020-Oct-27 04:00 203 13 gusting 13 17.2
2020-Oct-27 03:55 225 6 gusting 6 17.2
2020-Oct-27 03:51 225 1 gusting 6 17.8
2020-Oct-27 03:45 315 6 gusting 6 18.3
2020-Oct-27 03:40 248 1 gusting 6 18.3
2020-Oct-27 03:35 158 6 gusting 6 18.3
2020-Oct-27 03:30 225 11 gusting 11 18.9
2020-Oct-27 03:25 270 6 gusting 6 19.4
2020-Oct-27 03:20 203 3 gusting 6 19.4
2020-Oct-27 03:15 203 19.4
2020-Oct-27 03:10 270 19.4
2020-Oct-27 03:06 090 19.4
2020-Oct-27 03:00 225 1 gusting 3 19.4
2020-Oct-27 02:55 225 3 gusting 4 18.9
2020-Oct-27 02:50 180 4 gusting 4 18.9
2020-Oct-27 02:46 225 1 gusting 3 18.9
2020-Oct-27 02:40 225 3 gusting 3 18.3
2020-Oct-27 02:35 180 2 gusting 5 18.3
2020-Oct-27 02:30 225 2 gusting 2 17.8
2020-Oct-27 02:25 203 17.8
2020-Oct-27 02:20 158 1 gusting 1 17.8
2020-Oct-27 02:15 135 2 gusting 3 17.8
2020-Oct-27 02:10 158 3 gusting 5 17.2
2020-Oct-27 02:05 158 17.2
2020-Oct-27 02:01 158 17.2
2020-Oct-27 01:55 113 17.2
2020-Oct-27 01:50 068 17.2
2020-Oct-27 01:45 090 17.8
2020-Oct-27 01:40 090 17.8
2020-Oct-27 01:35 090 0 gusting 1 17.8
2020-Oct-27 01:30 090 17.2
2020-Oct-27 01:25 045 17.2
2020-Oct-27 01:20 135 17.2
2020-Oct-27 01:15 068 17.2
2020-Oct-27 01:00 113 17.2
2020-Oct-27 00:55 203 17.8
2020-Oct-27 00:50 135 2 gusting 2 17.8
2020-Oct-27 00:46 068 17.8
2020-Oct-27 00:40 158 0 gusting 4 18.3
2020-Oct-27 00:35 158 1 gusting 3 18.3
2020-Oct-27 00:30 158 5 gusting 5 18.3
2020-Oct-27 00:25 045 18.3
2020-Oct-27 00:21 203 1 gusting 4 17.8
2020-Oct-27 00:16 113 17.8
2020-Oct-27 00:11 180 17.8
2020-Oct-27 00:05 203 3 gusting 3 17.8
2020-Oct-27 00:00 090 17.2
2020-Oct-26 23:55 113 17.2
2020-Oct-26 23:50 158 3 gusting 4 17.2
2020-Oct-26 23:46 135 0 gusting 0 17.2
2020-Oct-26 23:40 158 17.2
2020-Oct-26 23:35 090 17.2
2020-Oct-26 23:30 113 17.8
2020-Oct-26 23:25 180 2 gusting 3 17.8
2020-Oct-26 23:21 203 3 gusting 6 17.8
2020-Oct-26 23:15 180 0 gusting 5 17.8
2020-Oct-26 23:10 158 5 gusting 5 17.8
2020-Oct-26 23:05 113 17.8
2020-Oct-26 23:00 045 17.2
2020-Oct-26 22:56 158 1 gusting 3 17.2
2020-Oct-26 22:50 180 6 gusting 6 16.7
2020-Oct-26 22:46 158 0 gusting 3 16.7
2020-Oct-26 22:40 203 3 gusting 5 17.2
2020-Oct-26 22:36 158 1 gusting 3 16.7
2020-Oct-26 22:30 045 16.7
2020-Oct-26 22:25 158 16.7
2020-Oct-26 22:21 180 2 gusting 3 17.2
2020-Oct-26 22:15 180 3 gusting 3 16.7
2020-Oct-26 22:11 158 1 gusting 5 16.7
2020-Oct-26 22:05 158 5 gusting 5 16.7
2020-Oct-26 22:00 180 1 gusting 2 16.7
2020-Oct-26 21:55 158 2 gusting 2 17.2
2020-Oct-26 21:51 158 4 gusting 5 17.2
2020-Oct-26 21:45 180 0 gusting 5 17.2
2020-Oct-26 21:40 158 0 gusting 5 16.7
2020-Oct-26 21:36 180 3 gusting 3 16.7
2020-Oct-26 21:31 135 2 gusting 2 17.2
2020-Oct-26 21:25 158 2 gusting 2 17.2
2020-Oct-26 21:21 203 2 gusting 3 17.2
2020-Oct-26 21:15 203 3 gusting 4 17.2
2020-Oct-26 21:10 180 1 gusting 2 17.8
2020-Oct-26 21:05 180 3 gusting 3 17.2
2020-Oct-26 21:00 203 2 gusting 5 17.2
2020-Oct-26 20:55 135 2 gusting 2 17.2
2020-Oct-26 20:51 158 0 gusting 1 17.2
2020-Oct-26 20:45 135 1 gusting 2 17.2
2020-Oct-26 20:40 180 2 gusting 3 17.2
2020-Oct-26 20:35 158 1 gusting 2 17.2
2020-Oct-26 20:30 113 2 gusting 3 17.2
2020-Oct-26 20:25 180 2 gusting 2 16.7
2020-Oct-26 20:20 180 2 gusting 2 17.2
2020-Oct-26 20:15 113 2 gusting 2 17.2
2020-Oct-26 20:10 158 0 gusting 2 17.2
2020-Oct-26 20:05 203 2 gusting 4 17.2
2020-Oct-26 20:01 203 1 gusting 1 17.2
2020-Oct-26 19:55 068 17.2
2020-Oct-26 19:50 225 0 gusting 1 17.2
2020-Oct-26 19:45 158 17.2
2020-Oct-26 19:35 158 1 gusting 3 17.2
2020-Oct-26 19:30 180 1 gusting 6 17.2
2020-Oct-26 19:26 180 6 gusting 6 17.2
2020-Oct-26 19:20 158 1 gusting 4 17.2
2020-Oct-26 19:15 113 2 gusting 5 17.2
2020-Oct-26 19:10 180 5 gusting 5 17.2
2020-Oct-26 19:05 158 2 gusting 2 17.8
2020-Oct-26 19:00 158 17.2
2020-Oct-26 18:55 180 1 gusting 6 17.2
2020-Oct-26 18:50 180 1 gusting 3 17.2
2020-Oct-26 18:45 158 1 gusting 2 17.8
2020-Oct-26 18:40 180 2 gusting 3 17.2
2020-Oct-26 18:35 180 3 gusting 5 17.2
2020-Oct-26 18:30 203 5 gusting 5 17.2
2020-Oct-26 18:25 203 1 gusting 1 17.8
2020-Oct-26 18:20 180 3 gusting 4 17.8
2020-Oct-26 18:16 158 4 gusting 5 17.8
2020-Oct-26 18:10 180 5 gusting 5 17.2
2020-Oct-26 18:05 203 4 gusting 5 17.2
2020-Oct-26 18:01 158 5 gusting 5 17.2
2020-Oct-26 17:56 113 17.2
2020-Oct-26 17:50 203 3 gusting 5 17.2
2020-Oct-26 17:45 180 0 gusting 2 17.2
2020-Oct-26 17:40 203 2 gusting 2 17.2
2020-Oct-26 17:36 158 2 gusting 2 17.2
2020-Oct-26 17:30 135 17.8
2020-Oct-26 17:26 113 0 gusting 0 17.8
2020-Oct-26 17:20 023 17.8
2020-Oct-26 17:15 135 0 gusting 2 17.8
2020-Oct-26 17:10 180 2 gusting 2 17.8
2020-Oct-26 17:05 203 17.8
2020-Oct-26 17:01 180 2 gusting 2 17.8
2020-Oct-26 16:55 158 17.8
2020-Oct-26 16:50 135 0 gusting 0 17.8
2020-Oct-26 16:46 068 17.8
2020-Oct-26 16:40 17.8
2020-Oct-26 16:36 023 18.3
2020-Oct-26 16:30 090 18.3
2020-Oct-26 16:26 068 18.3
2020-Oct-26 16:20 045 0 gusting 1 18.9
2020-Oct-26 16:15 068 1 gusting 1 18.9
2020-Oct-26 16:10 045 1 gusting 1 18.9
2020-Oct-26 16:05 068 18.9
2020-Oct-26 16:00 068 1 gusting 2 18.9
2020-Oct-26 15:56 045 2 gusting 2 18.9
2020-Oct-26 15:50 090 2 gusting 4 18.9
2020-Oct-26 15:45 068 19.4
2020-Oct-26 15:40 090 5 gusting 5 19.4
2020-Oct-26 15:35 135 0 gusting 2 19.4
2020-Oct-26 15:31 090 1 gusting 3 19.4
2020-Oct-26 15:25 090 3 gusting 3 19.4
2020-Oct-26 15:20 068 4 gusting 4 19.4
2020-Oct-26 15:15 090 4 gusting 5 19.4
2020-Oct-26 15:10 068 5 gusting 5 19.4
2020-Oct-26 15:05 068 4 gusting 4 19.4
2020-Oct-26 15:00 068 3 gusting 3 19.4
2020-Oct-26 14:55 090 1 gusting 5 19.4
2020-Oct-26 14:50 135 2 gusting 2 19.4
2020-Oct-26 14:45 090 2 gusting 3 19.4
2020-Oct-26 14:40 113 1 gusting 4 20.0
2020-Oct-26 14:35 113 1 gusting 3 20.0
2020-Oct-26 14:31 090 3 gusting 3 20.0
2020-Oct-26 14:26 068 1 gusting 2 20.0
2020-Oct-26 14:20 113 3 gusting 3 20.0
2020-Oct-26 14:16 068 1 gusting 2 20.0
2020-Oct-26 14:10 090 2 gusting 3 20.0
2020-Oct-26 14:05 068 2 gusting 4 20.6
2020-Oct-26 14:00 113 4 gusting 4 20.6
2020-Oct-26 13:55 090 2 gusting 4 20.6
2020-Oct-26 13:51 090 4 gusting 4 20.6
2020-Oct-26 13:45 068 2 gusting 2 20.6
2020-Oct-26 13:40 068 2 gusting 2 20.6
2020-Oct-26 13:35 090 2 gusting 5 20.6
2020-Oct-26 13:30 113 2 gusting 2 20.6
2020-Oct-26 13:25 090 2 gusting 3 20.6
2020-Oct-26 13:20 090 4 gusting 4 20.6
2020-Oct-26 13:15 068 3 gusting 3 20.6
2020-Oct-26 13:11 045 3 gusting 5 20.6
2020-Oct-26 13:05 090 5 gusting 5 20.6
2020-Oct-26 13:00 090 1 gusting 6 20.6
2020-Oct-26 12:55 090 6 gusting 6 20.6
2020-Oct-26 12:51 068 4 gusting 4 20.6
2020-Oct-26 12:46 068 4 gusting 6 20.6
2020-Oct-26 12:40 068 6 gusting 6 20.6
2020-Oct-26 12:35 068 1 gusting 3 20.6
2020-Oct-26 12:30 113 1 gusting 1 20.6
2020-Oct-26 12:25 068 1 gusting 2 20.6
2020-Oct-26 12:20 090 2 gusting 3 20.6
2020-Oct-26 12:15 068 2 gusting 2 20.6
2020-Oct-26 12:10 045 2 gusting 2 20.6
2020-Oct-26 12:05 068 0 gusting 0 20.6
2020-Oct-26 12:01 068 0 gusting 2 20.6
2020-Oct-26 11:55 068 0 gusting 2 20.6
2020-Oct-26 11:50 090 1 gusting 1 20.6
2020-Oct-26 11:45 068 0 gusting 1 20.6
2020-Oct-26 11:40 045 1 gusting 2 20.6
2020-Oct-26 11:35 068 1 gusting 1 20.6
2020-Oct-26 11:30 068 1 gusting 2 20.6
2020-Oct-26 11:25 045 2 gusting 2 20.6
2020-Oct-26 11:20 113 1 gusting 1 20.6
2020-Oct-26 11:15 068 0 gusting 1 20.6
2020-Oct-26 11:10 090 1 gusting 2 20.6
2020-Oct-26 11:05 090 2 gusting 3 20.0
2020-Oct-26 11:01 090 3 gusting 3 20.0
2020-Oct-26 10:55 068 2 gusting 2 20.0
2020-Oct-26 10:50 068 3 gusting 3 20.0
2020-Oct-26 10:45 068 2 gusting 3 20.0
2020-Oct-26 10:40 068 2 gusting 2 20.0
2020-Oct-26 10:35 068 2 gusting 2 20.0
2020-Oct-26 10:30 023 0 gusting 2 20.0
2020-Oct-26 10:26 045 2 gusting 3 20.0
2020-Oct-26 10:20 068 1 gusting 3 20.0
2020-Oct-26 10:15 090 2 gusting 3 20.0
2020-Oct-26 10:10 068 3 gusting 3 20.0
2020-Oct-26 10:05 315 20.6
2020-Oct-26 10:00 203 0 gusting 1 20.0
2020-Oct-26 09:55 023 0 gusting 0 20.6
2020-Oct-26 09:50 338 0 gusting 0 20.6
2020-Oct-26 09:45 045 20.0
2020-Oct-26 09:40 045 0 gusting 0 20.0
2020-Oct-26 09:35 248 0 gusting 0 20.0
2020-Oct-26 09:30 315 20.0
2020-Oct-26 09:25 045 20.0
2020-Oct-26 09:20 338 20.0
2020-Oct-26 09:15 045 0 gusting 0 20.0
2020-Oct-26 09:10 068 20.0
2020-Oct-26 09:05 180 20.0
2020-Oct-26 09:00 203 0 gusting 0 20.0
2020-Oct-26 08:55 045 2 gusting 2 19.4
2020-Oct-26 08:50 045 1 gusting 1 19.4
2020-Oct-26 08:45 068 1 gusting 1 19.4
2020-Oct-26 08:40 068 1 gusting 1 19.4
2020-Oct-26 08:35 293 19.4
2020-Oct-26 08:30 158 19.4
2020-Oct-26 08:25 068 0 gusting 0 19.4
2020-Oct-26 08:20 225 19.4
2020-Oct-26 08:16 225 19.4
2020-Oct-26 08:11 248 19.4
2020-Oct-26 08:05 225 19.4
2020-Oct-26 08:00 248 18.9
2020-Oct-26 07:56 248 0 gusting 0 18.9
2020-Oct-26 07:50 203 0 gusting 0 18.9
2020-Oct-26 07:45 225 0 gusting 0 18.3
2020-Oct-26 07:40 180 0 gusting 0 18.3
2020-Oct-26 07:35 180 0 gusting 0 18.3
2020-Oct-26 07:30 158 18.3
2020-Oct-26 07:26 180 3 gusting 3 17.8
2020-Oct-26 07:20 180 0 gusting 4 17.8
2020-Oct-26 07:15 180 4 gusting 4 17.8
2020-Oct-26 07:11 135 17.8
2020-Oct-26 07:05 180 1 gusting 2 17.2
2020-Oct-26 07:00 158 2 gusting 2 17.2
2020-Oct-26 06:55 180 17.2
2020-Oct-26 06:50 180 1 gusting 2 16.7
2020-Oct-26 06:45 113 2 gusting 2 16.7
2020-Oct-26 06:40 158 1 gusting 4 16.7
2020-Oct-26 06:36 158 4 gusting 4 16.7
2020-Oct-26 06:30 180 4 gusting 4 16.1
2020-Oct-26 06:25 158 1 gusting 2 16.1
2020-Oct-26 06:21 158 2 gusting 2 16.1
2020-Oct-26 06:16 180 1 gusting 1 16.1
2020-Oct-26 06:10 180 1 gusting 4 15.6
2020-Oct-26 06:05 180 3 gusting 3 15.6
2020-Oct-26 06:00 203 3 gusting 3 15.6
2020-Oct-26 05:55 180 1 gusting 4 15.6
2020-Oct-26 05:50 180 4 gusting 4 15.6
2020-Oct-26 05:45 180 2 gusting 2 15.6
2020-Oct-26 05:40 158 1 gusting 4 15.6
2020-Oct-26 05:35 180 4 gusting 4 15.6
2020-Oct-26 05:30 180 4 gusting 4 15.6
2020-Oct-26 05:25 180 4 gusting 4 15.6
2020-Oct-26 05:20 180 2 gusting 3 15.6
2020-Oct-26 05:15 180 3 gusting 3 15.6
2020-Oct-26 05:10 158 1 gusting 3 15.6
2020-Oct-26 05:05 158 1 gusting 2 15.6
2020-Oct-26 05:00 180 2 gusting 2 15.6
2020-Oct-26 04:55 135 0 gusting 3 15.6
2020-Oct-26 04:50 180 2 gusting 2 15.6
2020-Oct-26 04:45 203 1 gusting 2 15.6
2020-Oct-26 04:40 158 2 gusting 2 16.1
2020-Oct-26 04:35 180 1 gusting 3 16.1
2020-Oct-26 04:30 158 3 gusting 3 16.1
2020-Oct-26 04:25 158 3 gusting 3 16.1
2020-Oct-26 04:20 180 2 gusting 2 16.1
2020-Oct-26 04:15 068 0 gusting 4 16.1
2020-Oct-26 04:10 180 1 gusting 1 16.1
2020-Oct-26 04:05 090 0 gusting 0 16.1
2020-Oct-26 04:01 158 0 gusting 2 16.7
2020-Oct-26 03:55 113 16.7
2020-Oct-26 03:50 180 1 gusting 2 16.7
2020-Oct-26 00:01